Location: Bailen
(14.1842°N, 120.7958°E)
Time: 12:52:56
(UTC+00:00)

Lacrosse 4 Rocket - Pass Details

Date: 26 April 2026
Orbit: 506 x 567 km, 68.0° (Epoch: 12 May)

Event Time Altitude Azimuth Distance (km) Brightness Sun altitude
Exits shadow 20:43:41 11° 300° (WNW) 1,682 3.4 -13.2°
Drops below altitude 10° 20:44:20 10° 310° (NW) 1,730 3.5 -13.1°
Sets 20:48:08 0° 348° (NNW) 2,632 4.9 -12.2°
